Flag for U.S.A. Weather past 2 weeks in Sevierville, Tennessee, U.S.A.

Now
62 °F

Passing clouds.


Feels Like: 62 °F
Forecast: 55 / 73 °F
Wind: 3 mph from Southwest

Location: McGhee Tyson Airport

Current Time: Oct 25, 2014 at 10:09:57 PM

Latest Report: Oct 25, 2014 at 8:53 PM


Visibility: 10 mi

Pressure: 30.02 "Hg

Humidity: 65%

Dew point: 50 °F

Location of SeviervilleLocation

Historic Weather in Sevierville — Graph

°F

Sevierville temperature yesterday

Maximum temperature yesterday: 67 °F (at 4:53 PM)
Minimum temperature yesterday: 43 °F (at 7:53 AM)
Average temperature yesterday: 54 °F

Past Weeks' High & Low Weather Summary

 TemperatureHumidityPressure
High80 °F (Oct 13, 2:53 PM)100% (Oct 10, 9:53 PM)30.22 "Hg (Oct 10, 9:53 PM)
Low34 °F (Oct 17, 5:00 AM)36% (Oct 24, 5:53 PM)29.63 "Hg (Oct 14, 1:53 PM)
Average59 °F77%29.99 "Hg
* Reported Oct 10 8:53 PM — Oct 25 8:53 PM, Sevierville, Weather by CustomWeather, © 2014

Note: Actual official high and low records may vary slightly from our data, if they occured in-between our weather recording intervals... More about our weather records

Advertising

Sevierville weather history for previous 24 hours

 ConditionsComfort  
Time TempWeatherWind HumidityBarometerVisibility
8:53 PM
Oct 25
62 °FPassing clouds.3 mph65%30.02 "Hg10 mi
7:53 PM63 °FClear.5 mph60%30.01 "Hg10 mi
6:53 PM66 °FOvercast.7 mph59%30.00 "Hg10 mi
5:53 PM68 °FScattered clouds.6 mph51%29.99 "Hg10 mi
4:53 PM69 °FPassing clouds.5 mph47%30.00 "Hg10 mi
3:53 PM69 °FScattered clouds.5 mph47%30.01 "Hg10 mi
2:53 PM69 °FPassing clouds.No wind45%30.02 "Hg10 mi
1:53 PM67 °FSunny.3 mph51%30.05 "Hg10 mi
12:53 PM64 °FSunny.3 mph47%30.07 "Hg10 mi
11:53 AM60 °FSunny.No wind58%30.08 "Hg10 mi
10:53 AM52 °FSunny.3 mph75%30.10 "Hg10 mi
9:53 AM48 °FLight fog.No wind80%30.12 "Hg10 mi
8:53 AM44 °FPassing clouds.No wind89%30.10 "Hg10 mi
7:53 AM41 °FLight fog.No wind93%30.10 "Hg7 mi
6:53 AM41 °FFog.No wind93%30.09 "Hg2 mi
5:53 AM43 °FClear.No wind93%30.08 "Hg10 mi
4:53 AM42 °FClear.No wind96%30.06 "Hg10 mi
2:53 AM44 °FClear.3 mph89%30.07 "Hg10 mi
1:53 AM47 °FClear.No wind86%30.06 "Hg10 mi
12:53 AM48 °FClear.No wind86%30.07 "Hg10 mi
11:53 PM
Oct 24
47 °FClear.No wind90%30.08 "Hg10 mi
10:53 PM51 °FClear.No wind77%30.07 "Hg10 mi
Weather by CustomWeather, © 2014

See weather overviewHow to use our weather pages